Regional Weather Roundup
Issued by NWS Columbia, SC

Current Version | Previous Version | Text Only | Print | Product List | Glossary On
Versions: 1 2 3 4 5 6 7 8 9 10 11 12 13 14 15 16 17 18 19 20 21 22 23 24 25 26 27 28 29 30 31 32 33 34 35 36 37 38 39 40 41 42 43 44 45 46 47 48 49 50
000
ASUS42 KCAE 121710
RWRCAE
REGIONAL WEATHER ROUNDUP
NATIONAL WEATHER SERVICE COLUMBIA SC
100 PM EDT MON APR 12 2021

NOTE: "FAIR" INDICATES FEW OR NO CLOUDS BELOW 12,000 FEET WITH NO
SIGNIFICANT WEATHER AND/OR OBSTRUCTIONS TO VISIBILITY.

NOT ALL STATIONS ARE QUALITY CONTROLLED BY THE NATIONAL
WEATHER SERVICE. USE DATA WITH CAUTION...ESPECIALLY
DEWPOINT OBSERVATIONS.

SCZ001>059-115-116-135>137-GAZ040-063>065-077-121800-
...UPSTATE SOUTH CAROLINA...

CITY           SKY/WX    TMP DP  RH WIND       PRES   REMARKS
ANDERSON       SUNNY     76  45  33 W9        29.80F
LIBERTY        SUNNY     77  44  30 W8        29.78F
SPARTANBURG    SUNNY     73  37  27 CALM      29.78F
CLEMSON        SUNNY     76  45  33 VRB5      29.79F
GREENVILLE     SUNNY     76  43  30 SW9G16    29.79S
GREENWOOD      SUNNY     77  42  28 NW9       29.81F
GREER          SUNNY     76  39  26 W10       29.79S
ROCK HILL      SUNNY     75  44  33 NW8       29.77S
CHESTER        SUNNY     77  37  24 W9        29.78F
LAURENS        SUNNY     77  43  29 W8        29.79S


...CENTRAL SOUTH CAROLINA...

CITY           SKY/WX    TMP DP  RH WIND       PRES   REMARKS
COLUMBIA APT   SUNNY     78  41  26 NW12G21   29.78F
COLUMBIA OWENS SUNNY     79  39  23 NW12G18   29.79F
MCENTIRE ANGB  SUNNY     80  38  22 W13G21    29.76F
ORANGEBURG     SUNNY     80  41  24 VRB7G20   29.79F
SUMTER SHAW    SUNNY     80  38  22 W9G18     29.76F
AIKEN          FAIR      79  43  28 W12G22    29.82S
BARNWELL       FAIR      81  39  22 W6G17     29.81F
MANNING        FAIR      77  36  22 NW9       29.78F
CAMDEN         FAIR      79  39  24 NW12      29.77F
LANCASTER        N/A     75  41  29 NW13      29.77F
WINNSBORO      SUNNY     75  43  31 W9G17     29.78F


...EASTERN AND COASTAL SOUTH CAROLINA...

CITY           SKY/WX    TMP DP  RH WIND       PRES   REMARKS
MYRTLE BEACH   SUNNY     78  41  26 NW17      29.75F
N MYRTLE BCH   SUNNY     77  37  23 N12G24    29.74F
CONWAY         FAIR      77  37  24 NW6       29.76S
MARION         FAIR      77  37  24 NW8G18    29.76S
HARTSVILLE     FAIR      77  37  24 VRB6G17   29.76F
FLORENCE       SUNNY     78  36  21 W12       29.76F
DARLINGTON     SUNNY     77  43  29 W15       29.76F
CHARLESTON APT SUNNY     79  39  23 NW8       29.79F
MOUNT PLEASANT FAIR      79  39  24 NW13      29.79S
WALTERBORO     SUNNY     79  37  22 NW13      29.82S
BEAUFORT       SUNNY     81  40  23 NW9       29.82S
HILTON HEAD    SUNNY     77  41  27 NW9       29.84S


...EASTERN GEORGIA...

CITY           SKY/WX    TMP DP  RH WIND       PRES   REMARKS
AUGUSTA BUSH F SUNNY     83  41  22 NW14G25   29.80
AUGUSTA DANIEL SUNNY     80  42  25 W9        29.82F
THOMSON        SUNNY     79  43  28 W14       29.83F
WASHINGTON     FAIR      77  45  31 W12       29.83S
CLAXTON        FAIR      80  40  24 N3        29.86S
SYLVANIA       SUNNY     79  42  26 NW12G18   29.85S
STATESBORO     SUNNY     79  37  22 NW10G21   29.85S
SAVANNAH       SUNNY     81  39  22 NW18      29.84S


...SOUTHERN NORTH CAROLINA...

CITY           SKY/WX    TMP DP  RH WIND       PRES   REMARKS
CHARLOTTE      MOSUNNY   76  42  29 SW8G20    29.76S
MONROE         SUNNY     76  43  30 W15       29.75F
WADESBORO      SUNNY     76  37  25 W8        29.75S
ROCKINGHAM     SUNNY     76  37  24 W10G17    29.75S
RUTHERFORDTON  SUNNY     75  37  25 NW14G26   29.77F
ASHEVILLE      SUNNY     73  38  27 NW18G26   29.80S

$$



USA.gov is the U.S. government's official web portal to all federal, state and local government web resources and services.